Regional Weather Roundup
Issued by NWS

Home | Current Version | Previous Version | Text Only | Print | Product List | Glossary On
Versions: 1 2 3 4 5 6 7 8 9 10 11 12 13 14 15 16 17 18 19 20 21 22 23 24 25 26 27 28 29 30 31 32 33 34 35 36 37 38 39 40 41 42 43 44 45 46 47 48 49 50
000
ASUS43 KLMK 311410
RWRKY
KENTUCKY REGIONAL WEATHER ROUNDUP
NATIONAL WEATHER SERVICE LOUISVILLE KY
1000 AM EDT WED AUG 31 2016

NOTE "FAIR" INDICATES FEW OR NO CLOUDS BELOW 12,000 FEET
WITH NO SIGNIFICANT WEATHER AND/OR OBSTRUCTIONS TO VISIBILITY.

KYZ001>023-026-027-061>063-070>075-311500-
WESTERN AND SOUTH CENTRAL KENTUCKY

CITY           SKY/WX    TMP DP  RH WIND       PRES   REMARKS
PADUCAH        SUNNY     79  73  82 N6        30.02S
HENDERSON      SUNNY     79  72  78 N3        30.01F
OWENSBORO      SUNNY     81  73  78 N5        30.02S HAZE
HOPKINSVILLE   SUNNY     81  73  78 CALM      30.01S
BOWLING GREEN  SUNNY     82  72  71 CALM      30.02R
GLASGOW        SUNNY     80  74  83 CALM      30.02S
$$

KYZ024-025-028>034-038-045-046-053-311500-
NORTH CENTRAL KENTUCKY

CITY           SKY/WX    TMP DP  RH WIND       PRES   REMARKS
LOUISVILLE/SDF PTSUNNY   82  69  64 CALM      30.00F
LOUISVILLE/LOU PTSUNNY   80  70  71 NW5       30.01F
FORT KNOX      PTSUNNY   78  72  82 CALM      30.01S
$$

KYZ035>037-039>044-047>052-055>060-089>105-311500-
NORTHEAST KENTUCKY

CITY           SKY/WX    TMP DP  RH WIND       PRES   REMARKS
LEXINGTON      SUNNY     79  70  74 W3        30.03S
COVINGTON      MOSUNNY   76  71  85 N6        30.03F
FRANKFORT      SUNNY     81  70  69 CALM      30.01F
$$

KYZ054-064>069-076>088-106>120-311500-
SOUTHEAST KENTUCKY

CITY           SKY/WX    TMP DP  RH WIND       PRES   REMARKS
JACKSON        SUNNY     75  70  84 CALM      30.05S
LONDON         SUNNY     76  68  76 S3        30.05S
SOMERSET       SUNNY     75  72  88 CALM      30.05S
MIDDLESBORO    CLOUDY    69  68  97 CALM      30.07S
MONTICELLO     SUNNY    N/A N/A N/A NW8       30.05S
$$





USA.gov is the U.S. government's official web portal to all federal, state and local government web resources and services.